owner,sensor,date,latitude,longitude,air_temperature,qcFlag 
DISL,ioos:station:DISL:CATA:1,2013-02-01T00:00:00Z,30.3085,-88.1395,12.37,1111122 
DISL,ioos:station:DISL:CATA:1,2013-02-01T00:30:00Z,30.3085,-88.1395,12.52,1111122 
DISL,ioos:station:DISL:CATA:1,2013-02-01T01:00:00Z,30.3085,-88.1395,12.73,1111122 
DISL,ioos:station:DISL:CATA:1,2013-02-01T01:30:00Z,30.3085,-88.1395,12.97,1111122 
DISL,ioos:station:DISL:CATA:1,2013-02-01T02:00:00Z,30.3085,-88.1395,12.97,1111122 
DISL,ioos:station:DISL:CATA:1,2013-02-01T02:30:00Z,30.3085,-88.1395,13.1,1111122 
DISL,ioos:station:DISL:CATA:1,2013-02-01T03:00:00Z,30.3085,-88.1395,13.2,1111122 
DISL,ioos:station:DISL:CATA:1,2013-02-01T03:30:00Z,30.3085,-88.1395,13.37,1111122 
DISL,ioos:station:DISL:CATA:1,2013-02-01T04:00:00Z,30.3085,-88.1395,13.4,1111122 
DISL,ioos:station:DISL:CATA:1,2013-02-01T04:30:00Z,30.3085,-88.1395,13.47,1111122 
DISL,ioos:station:DISL:CATA:1,2013-02-01T05:00:00Z,30.3085,-88.1395,13.7,1111122 
DISL,ioos:station:DISL:CATA:1,2013-02-01T05:30:00Z,30.3085,-88.1395,13.26,1111122 
DISL,ioos:station:DISL:CATA:1,2013-02-01T06:00:00Z,30.3085,-88.1395,13.33,1111122 
DISL,ioos:station:DISL:CATA:1,2013-02-01T06:30:00Z,30.3085,-88.1395,13.12,1111122 
DISL,ioos:station:DISL:CATA:1,2013-02-01T07:00:00Z,30.3085,-88.1395,12.4,1111122 
DISL,ioos:station:DISL:CATA:1,2013-02-01T07:30:00Z,30.3085,-88.1395,12.07,1111122 
DISL,ioos:station:DISL:CATA:1,2013-02-01T08:00:00Z,30.3085,-88.1395,11.87,1111122 
DISL,ioos:station:DISL:CATA:1,2013-02-01T08:30:00Z,30.3085,-88.1395,11.77,1111122 
DISL,ioos:station:DISL:CATA:1,2013-02-01T09:00:00Z,30.3085,-88.1395,11.32,1111122 
DISL,ioos:station:DISL:CATA:1,2013-02-01T09:30:00Z,30.3085,-88.1395,10.63,1111122 
DISL,ioos:station:DISL:CATA:1,2013-02-01T10:00:00Z,30.3085,-88.1395,10.46,1111122 
DISL,ioos:station:DISL:CATA:1,2013-02-01T10:30:00Z,30.3085,-88.1395,10.15,1111122 
DISL,ioos:station:DISL:CATA:1,2013-02-01T11:00:00Z,30.3085,-88.1395,10.3,1111122 
DISL,ioos:station:DISL:CATA:1,2013-02-01T11:30:00Z,30.3085,-88.1395,9.96,1111122 
DISL,ioos:station:DISL:CATA:1,2013-02-01T12:00:00Z,30.3085,-88.1395,10.06,1111122 
DISL,ioos:station:DISL:CATA:1,2013-02-01T12:30:00Z,30.3085,-88.1395,10.09,1111122 
DISL,ioos:station:DISL:CATA:1,2013-02-01T13:00:00Z,30.3085,-88.1395,9.92,1111122 
DISL,ioos:station:DISL:CATA:1,2013-02-01T13:30:00Z,30.3085,-88.1395,9.92,1111122 
DISL,ioos:station:DISL:CATA:1,2013-02-01T14:00:00Z,30.3085,-88.1395,9.27,1111122 
DISL,ioos:station:DISL:CATA:1,2013-02-01T14:30:00Z,30.3085,-88.1395,9.17,1111122 
DISL,ioos:station:DISL:CATA:1,2013-02-01T15:00:00Z,30.3085,-88.1395,9.37,1111122 
DISL,ioos:station:DISL:CATA:1,2013-02-01T15:30:00Z,30.3085,-88.1395,9.58,1111122 
DISL,ioos:station:DISL:CATA:1,2013-02-01T16:00:00Z,30.3085,-88.1395,9.98,1111122 
DISL,ioos:station:DISL:CATA:1,2013-02-01T16:30:00Z,30.3085,-88.1395,10.05,1111122 
DISL,ioos:station:DISL:CATA:1,2013-02-01T17:00:00Z,30.3085,-88.1395,10.05,1111122 
DISL,ioos:station:DISL:CATA:1,2013-02-01T17:30:00Z,30.3085,-88.1395,10.36,1111122 
DISL,ioos:station:DISL:CATA:1,2013-02-01T18:00:00Z,30.3085,-88.1395,11.1,1111122 
DISL,ioos:station:DISL:CATA:1,2013-02-01T18:30:00Z,30.3085,-88.1395,11.2,1111122 
DISL,ioos:station:DISL:CATA:1,2013-02-01T19:00:00Z,30.3085,-88.1395,11.61,1111122 
DISL,ioos:station:DISL:CATA:1,2013-02-01T19:30:00Z,30.3085,-88.1395,11.95,1111122 
DISL,ioos:station:DISL:CATA:1,2013-02-01T20:00:00Z,30.3085,-88.1395,11.95,1111122 
DISL,ioos:station:DISL:CATA:1,2013-02-01T20:30:00Z,30.3085,-88.1395,12.33,1111122 
DISL,ioos:station:DISL:CATA:1,2013-02-01T21:00:00Z,30.3085,-88.1395,12.5,1111122 
DISL,ioos:station:DISL:CATA:1,2013-02-01T21:30:00Z,30.3085,-88.1395,12.81,1111122 
DISL,ioos:station:DISL:CATA:1,2013-02-01T22:00:00Z,30.3085,-88.1395,13.29,1111122 
DISL,ioos:station:DISL:CATA:1,2013-02-01T22:30:00Z,30.3085,-88.1395,13.43,1111122 
DISL,ioos:station:DISL:CATA:1,2013-02-01T23:00:00Z,30.3085,-88.1395,13.57,1111122 
DISL,ioos:station:DISL:CATA:1,2013-02-01T23:30:00Z,30.3085,-88.1395,13.7,1111122 
DISL,ioos:station:DISL:CATA:1,2013-02-02T00:00:00Z,30.3085,-88.1395,13.67,1111122 
DISL,ioos:station:DISL:CATA:1,2013-02-02T00:30:00Z,30.3085,-88.1395,13.67,1111122 
DISL,ioos:station:DISL:CATA:1,2013-02-02T01:00:00Z,30.3085,-88.1395,13.64,1111122 
DISL,ioos:station:DISL:CATA:1,2013-02-02T01:30:00Z,30.3085,-88.1395,13.02,1111122 
DISL,ioos:station:DISL:CATA:1,2013-02-02T02:00:00Z,30.3085,-88.1395,12.99,1111122 
DISL,ioos:station:DISL:CATA:1,2013-02-02T02:30:00Z,30.3085,-88.1395,12.72,1111122 
DISL,ioos:station:DISL:CATA:1,2013-02-02T03:00:00Z,30.3085,-88.1395,11.87,1111122 
DISL,ioos:station:DISL:CATA:1,2013-02-02T03:30:00Z,30.3085,-88.1395,11.15,1111122 
DISL,ioos:station:DISL:CATA:1,2013-02-02T04:00:00Z,30.3085,-88.1395,10.91,1111122 
DISL,ioos:station:DISL:CATA:1,2013-02-02T04:30:00Z,30.3085,-88.1395,10.4,1111122 
DISL,ioos:station:DISL:CATA:1,2013-02-02T05:00:00Z,30.3085,-88.1395,10.2,1111122 
DISL,ioos:station:DISL:CATA:1,2013-02-02T05:30:00Z,30.3085,-88.1395,9.82,1111122 
DISL,ioos:station:DISL:CATA:1,2013-02-02T06:00:00Z,30.3085,-88.1395,9.51,1111122 
DISL,ioos:station:DISL:CATA:1,2013-02-02T06:30:00Z,30.3085,-88.1395,9.41,1111122 
DISL,ioos:station:DISL:CATA:1,2013-02-02T07:00:00Z,30.3085,-88.1395,9.38,1111122 
DISL,ioos:station:DISL:CATA:1,2013-02-02T07:30:00Z,30.3085,-88.1395,9.18,1111122 
DISL,ioos:station:DISL:CATA:1,2013-02-02T08:00:00Z,30.3085,-88.1395,8.9,1111122 
DISL,ioos:station:DISL:CATA:1,2013-02-02T08:30:00Z,30.3085,-88.1395,9.14,1111122 
DISL,ioos:station:DISL:CATA:1,2013-02-02T09:00:00Z,30.3085,-88.1395,8.83,1111122 
DISL,ioos:station:DISL:CATA:1,2013-02-02T09:30:00Z,30.3085,-88.1395,8.73,1111122 
DISL,ioos:station:DISL:CATA:1,2013-02-02T10:00:00Z,30.3085,-88.1395,8.46,1111122 
DISL,ioos:station:DISL:CATA:1,2013-02-02T10:30:00Z,30.3085,-88.1395,8.39,1111122 
DISL,ioos:station:DISL:CATA:1,2013-02-02T11:00:00Z,30.3085,-88.1395,8.04,1111122 
DISL,ioos:station:DISL:CATA:1,2013-02-02T11:30:00Z,30.3085,-88.1395,8.01,1111122 
DISL,ioos:station:DISL:CATA:1,2013-02-02T12:00:00Z,30.3085,-88.1395,8.25,1111122 
DISL,ioos:station:DISL:CATA:1,2013-02-02T12:30:00Z,30.3085,-88.1395,7.769,1111122 
DISL,ioos:station:DISL:CATA:1,2013-02-02T13:00:00Z,30.3085,-88.1395,7.907,1111122 
DISL,ioos:station:DISL:CATA:1,2013-02-02T13:30:00Z,30.3085,-88.1395,8.35,1111122 
DISL,ioos:station:DISL:CATA:1,2013-02-02T14:00:00Z,30.3085,-88.1395,8.52,1111122 
DISL,ioos:station:DISL:CATA:1,2013-02-02T14:30:00Z,30.3085,-88.1395,8.86,1111122 
DISL,ioos:station:DISL:CATA:1,2013-02-02T15:00:00Z,30.3085,-88.1395,9.16,1111122 
DISL,ioos:station:DISL:CATA:1,2013-02-02T15:30:00Z,30.3085,-88.1395,9.67,1111122 
DISL,ioos:station:DISL:CATA:1,2013-02-02T16:00:00Z,30.3085,-88.1395,10.32,1111122 
DISL,ioos:station:DISL:CATA:1,2013-02-02T16:30:00Z,30.3085,-88.1395,11.13,1111122 
DISL,ioos:station:DISL:CATA:1,2013-02-02T17:00:00Z,30.3085,-88.1395,11.75,1111122 
DISL,ioos:station:DISL:CATA:1,2013-02-02T17:30:00Z,30.3085,-88.1395,12.74,1111122 
DISL,ioos:station:DISL:CATA:1,2013-02-02T18:00:00Z,30.3085,-88.1395,13.58,1111122 
DISL,ioos:station:DISL:CATA:1,2013-02-02T18:30:00Z,30.3085,-88.1395,14.03,1111122 
DISL,ioos:station:DISL:CATA:1,2013-02-02T19:00:00Z,30.3085,-88.1395,14.51,1111122 
DISL,ioos:station:DISL:CATA:1,2013-02-02T19:30:00Z,30.3085,-88.1395,14.65,1111122 
DISL,ioos:station:DISL:CATA:1,2013-02-02T20:00:00Z,30.3085,-88.1395,14.92,1111122 
DISL,ioos:station:DISL:CATA:1,2013-02-02T20:30:00Z,30.3085,-88.1395,15.23,1111122 
DISL,ioos:station:DISL:CATA:1,2013-02-02T21:00:00Z,30.3085,-88.1395,15.74,1111122 
DISL,ioos:station:DISL:CATA:1,2013-02-02T21:30:00Z,30.3085,-88.1395,15.67,1111122 
DISL,ioos:station:DISL:CATA:1,2013-02-02T22:00:00Z,30.3085,-88.1395,16.02,1111122 
DISL,ioos:station:DISL:CATA:1,2013-02-02T22:30:00Z,30.3085,-88.1395,15.74,1111122 
DISL,ioos:station:DISL:CATA:1,2013-02-02T23:00:00Z,30.3085,-88.1395,15.19,1111122 
DISL,ioos:station:DISL:CATA:1,2013-02-02T23:30:00Z,30.3085,-88.1395,14.28,1111122 
DISL,ioos:station:DISL:CATA:1,2013-02-03T00:00:00Z,30.3085,-88.1395,14.35,1111122 
DISL,ioos:station:DISL:CATA:1,2013-02-03T00:30:00Z,30.3085,-88.1395,14.25,1111122 
DISL,ioos:station:DISL:CATA:1,2013-02-03T01:00:00Z,30.3085,-88.1395,13.81,1111122 
DISL,ioos:station:DISL:CATA:1,2013-02-03T01:30:00Z,30.3085,-88.1395,13.77,1111122 
DISL,ioos:station:DISL:CATA:1,2013-02-03T02:00:00Z,30.3085,-88.1395,13.81,1111122 
DISL,ioos:station:DISL:CATA:1,2013-02-03T02:30:00Z,30.3085,-88.1395,13.81,1111122 
DISL,ioos:station:DISL:CATA:1,2013-02-03T03:00:00Z,30.3085,-88.1395,14.26,1111122 
DISL,ioos:station:DISL:CATA:1,2013-02-03T03:30:00Z,30.3085,-88.1395,14.39,1111122 
DISL,ioos:station:DISL:CATA:1,2013-02-03T04:00:00Z,30.3085,-88.1395,14.39,1111122 
DISL,ioos:station:DISL:CATA:1,2013-02-03T04:30:00Z,30.3085,-88.1395,14.56,1111122 
DISL,ioos:station:DISL:CATA:1,2013-02-03T05:00:00Z,30.3085,-88.1395,14.77,1111122 
DISL,ioos:station:DISL:CATA:1,2013-02-03T05:30:00Z,30.3085,-88.1395,14.46,1111122 
DISL,ioos:station:DISL:CATA:1,2013-02-03T06:00:00Z,30.3085,-88.1395,14.56,1111122 
DISL,ioos:station:DISL:CATA:1,2013-02-03T06:30:00Z,30.3085,-88.1395,14.73,1111122 
DISL,ioos:station:DISL:CATA:1,2013-02-03T07:00:00Z,30.3085,-88.1395,14.8,1111122 
DISL,ioos:station:DISL:CATA:1,2013-02-03T07:30:00Z,30.3085,-88.1395,14.46,1111122 
DISL,ioos:station:DISL:CATA:1,2013-02-03T08:00:00Z,30.3085,-88.1395,13.26,1111122 
DISL,ioos:station:DISL:CATA:1,2013-02-03T08:30:00Z,30.3085,-88.1395,12.47,1111122 
DISL,ioos:station:DISL:CATA:1,2013-02-03T09:00:00Z,30.3085,-88.1395,12.13,1111122 
DISL,ioos:station:DISL:CATA:1,2013-02-03T09:30:00Z,30.3085,-88.1395,11.94,1111122 
DISL,ioos:station:DISL:CATA:1,2013-02-03T10:00:00Z,30.3085,-88.1395,11.77,1111122 
DISL,ioos:station:DISL:CATA:1,2013-02-03T10:30:00Z,30.3085,-88.1395,11.25,1111122 
DISL,ioos:station:DISL:CATA:1,2013-02-03T11:00:00Z,30.3085,-88.1395,10.98,1111122 
DISL,ioos:station:DISL:CATA:1,2013-02-03T11:30:00Z,30.3085,-88.1395,10.91,1111122 
DISL,ioos:station:DISL:CATA:1,2013-02-03T12:00:00Z,30.3085,-88.1395,10.5,1111122 
DISL,ioos:station:DISL:CATA:1,2013-02-03T12:30:00Z,30.3085,-88.1395,10.64,1111122 
DISL,ioos:station:DISL:CATA:1,2013-02-03T13:00:00Z,30.3085,-88.1395,9.68,1111122 
DISL,ioos:station:DISL:CATA:1,2013-02-03T13:30:00Z,30.3085,-88.1395,9.82,1111122 
DISL,ioos:station:DISL:CATA:1,2013-02-03T14:00:00Z,30.3085,-88.1395,10.33,1111122 
DISL,ioos:station:DISL:CATA:1,2013-02-03T14:30:00Z,30.3085,-88.1395,11.18,1111122 
DISL,ioos:station:DISL:CATA:1,2013-02-03T15:00:00Z,30.3085,-88.1395,11.34,1111122 
DISL,ioos:station:DISL:CATA:1,2013-02-03T15:30:00Z,30.3085,-88.1395,11.65,1111122 
DISL,ioos:station:DISL:CATA:1,2013-02-03T16:00:00Z,30.3085,-88.1395,11.68,1111122 
DISL,ioos:station:DISL:CATA:1,2013-02-03T16:30:00Z,30.3085,-88.1395,12.04,1111122 
DISL,ioos:station:DISL:CATA:1,2013-02-03T17:00:00Z,30.3085,-88.1395,12.66,1111122 
DISL,ioos:station:DISL:CATA:1,2013-02-03T17:30:00Z,30.3085,-88.1395,13.07,1111122 
DISL,ioos:station:DISL:CATA:1,2013-02-03T18:00:00Z,30.3085,-88.1395,13.65,1111122 
DISL,ioos:station:DISL:CATA:1,2013-02-03T18:30:00Z,30.3085,-88.1395,14.34,1111122 
DISL,ioos:station:DISL:CATA:1,2013-02-03T19:00:00Z,30.3085,-88.1395,13.96,1111122 
DISL,ioos:station:DISL:CATA:1,2013-02-03T19:30:00Z,30.3085,-88.1395,14.34,1111122 
DISL,ioos:station:DISL:CATA:1,2013-02-03T20:00:00Z,30.3085,-88.1395,14.23,1111122 
DISL,ioos:station:DISL:CATA:1,2013-02-03T20:30:00Z,30.3085,-88.1395,14.41,1111122 
DISL,ioos:station:DISL:CATA:1,2013-02-03T21:00:00Z,30.3085,-88.1395,14.61,1111122 
DISL,ioos:station:DISL:CATA:1,2013-02-03T21:30:00Z,30.3085,-88.1395,14.78,1111122 
DISL,ioos:station:DISL:CATA:1,2013-02-03T22:00:00Z,30.3085,-88.1395,14.92,1111122 
DISL,ioos:station:DISL:CATA:1,2013-02-03T22:30:00Z,30.3085,-88.1395,14.99,1111122 
DISL,ioos:station:DISL:CATA:1,2013-02-03T23:00:00Z,30.3085,-88.1395,14.85,1111122 
DISL,ioos:station:DISL:CATA:1,2013-02-03T23:30:00Z,30.3085,-88.1395,14.93,1111122 
DISL,ioos:station:DISL:CATA:1,2013-02-04T00:00:00Z,30.3085,-88.1395,14.97,1111122 
DISL,ioos:station:DISL:CATA:1,2013-02-04T00:30:00Z,30.3085,-88.1395,14.94,1111122 
DISL,ioos:station:DISL:CATA:1,2013-02-04T01:00:00Z,30.3085,-88.1395,14.87,1111122 
DISL,ioos:station:DISL:CATA:1,2013-02-04T01:30:00Z,30.3085,-88.1395,14.56,1111122 
DISL,ioos:station:DISL:CATA:1,2013-02-04T02:00:00Z,30.3085,-88.1395,14.66,1111122 
DISL,ioos:station:DISL:CATA:1,2013-02-04T02:30:00Z,30.3085,-88.1395,14.73,1111122 
DISL,ioos:station:DISL:CATA:1,2013-02-04T03:00:00Z,30.3085,-88.1395,14.46,1111122 
DISL,ioos:station:DISL:CATA:1,2013-02-04T03:30:00Z,30.3085,-88.1395,14.56,1111122 
DISL,ioos:station:DISL:CATA:1,2013-02-04T04:00:00Z,30.3085,-88.1395,14.8,1111122 
DISL,ioos:station:DISL:CATA:1,2013-02-04T04:30:00Z,30.3085,-88.1395,14.73,1111122 
DISL,ioos:station:DISL:CATA:1,2013-02-04T05:00:00Z,30.3085,-88.1395,14.6,1111122 
DISL,ioos:station:DISL:CATA:1,2013-02-04T05:30:00Z,30.3085,-88.1395,14.6,1111122 
DISL,ioos:station:DISL:CATA:1,2013-02-04T06:00:00Z,30.3085,-88.1395,12.06,1111122 
DISL,ioos:station:DISL:CATA:1,2013-02-04T06:30:00Z,30.3085,-88.1395,11.85,1111122 
DISL,ioos:station:DISL:CATA:1,2013-02-04T07:00:00Z,30.3085,-88.1395,10.36,1111122 
DISL,ioos:station:DISL:CATA:1,2013-02-04T07:30:00Z,30.3085,-88.1395,11.18,1111122 
DISL,ioos:station:DISL:CATA:1,2013-02-04T08:00:00Z,30.3085,-88.1395,11.39,1111122 
DISL,ioos:station:DISL:CATA:1,2013-02-04T08:30:00Z,30.3085,-88.1395,12.9,1111122 
DISL,ioos:station:DISL:CATA:1,2013-02-04T09:00:00Z,30.3085,-88.1395,12.66,1111122 
DISL,ioos:station:DISL:CATA:1,2013-02-04T09:30:00Z,30.3085,-88.1395,12.69,1111122 
DISL,ioos:station:DISL:CATA:1,2013-02-04T10:00:00Z,30.3085,-88.1395,12.28,1111122 
DISL,ioos:station:DISL:CATA:1,2013-02-04T10:30:00Z,30.3085,-88.1395,12.21,1111122 
DISL,ioos:station:DISL:CATA:1,2013-02-04T11:00:00Z,30.3085,-88.1395,11.97,1111122 
DISL,ioos:station:DISL:CATA:1,2013-02-04T11:30:00Z,30.3085,-88.1395,12.01,1111122 
DISL,ioos:station:DISL:CATA:1,2013-02-04T12:00:00Z,30.3085,-88.1395,11.87,1111122 
DISL,ioos:station:DISL:CATA:1,2013-02-04T12:30:00Z,30.3085,-88.1395,11.84,1111122 
DISL,ioos:station:DISL:CATA:1,2013-02-04T13:00:00Z,30.3085,-88.1395,11.73,1111122 
DISL,ioos:station:DISL:CATA:1,2013-02-04T13:30:00Z,30.3085,-88.1395,11.66,1111122 
DISL,ioos:station:DISL:CATA:1,2013-02-04T14:00:00Z,30.3085,-88.1395,11.7,1111122 
DISL,ioos:station:DISL:CATA:1,2013-02-04T14:30:00Z,30.3085,-88.1395,11.42,1111122 
DISL,ioos:station:DISL:CATA:1,2013-02-04T15:00:00Z,30.3085,-88.1395,11.49,1111122 
DISL,ioos:station:DISL:CATA:1,2013-02-04T15:30:00Z,30.3085,-88.1395,11.72,1111122 
DISL,ioos:station:DISL:CATA:1,2013-02-04T16:00:00Z,30.3085,-88.1395,11.75,1111122 
DISL,ioos:station:DISL:CATA:1,2013-02-04T16:30:00Z,30.3085,-88.1395,12.06,1111122 
DISL,ioos:station:DISL:CATA:1,2013-02-04T17:00:00Z,30.3085,-88.1395,12.16,1111122 
DISL,ioos:station:DISL:CATA:1,2013-02-04T17:30:00Z,30.3085,-88.1395,12.37,1111122 
DISL,ioos:station:DISL:CATA:1,2013-02-04T18:00:00Z,30.3085,-88.1395,12.61,1111122 
DISL,ioos:station:DISL:CATA:1,2013-02-04T18:30:00Z,30.3085,-88.1395,12.53,1111122 
DISL,ioos:station:DISL:CATA:1,2013-02-04T19:00:00Z,30.3085,-88.1395,12.78,1111122 
DISL,ioos:station:DISL:CATA:1,2013-02-04T19:30:00Z,30.3085,-88.1395,13.09,1111122 
DISL,ioos:station:DISL:CATA:1,2013-02-04T20:00:00Z,30.3085,-88.1395,13.36,1111122 
DISL,ioos:station:DISL:CATA:1,2013-02-04T20:30:00Z,30.3085,-88.1395,13.56,1111122 
DISL,ioos:station:DISL:CATA:1,2013-02-04T21:00:00Z,30.3085,-88.1395,13.96,1111122 
DISL,ioos:station:DISL:CATA:1,2013-02-04T21:30:00Z,30.3085,-88.1395,13.86,1111122 
DISL,ioos:station:DISL:CATA:1,2013-02-04T22:00:00Z,30.3085,-88.1395,13.89,1111122 
DISL,ioos:station:DISL:CATA:1,2013-02-04T22:30:00Z,30.3085,-88.1395,13.93,1111122 
DISL,ioos:station:DISL:CATA:1,2013-02-04T23:00:00Z,30.3085,-88.1395,14.15,1111122 
DISL,ioos:station:DISL:CATA:1,2013-02-04T23:30:00Z,30.3085,-88.1395,14.39,1111122 
DISL,ioos:station:DISL:CATA:1,2013-02-05T00:00:00Z,30.3085,-88.1395,14.15,1111122 
DISL,ioos:station:DISL:CATA:1,2013-02-05T00:30:00Z,30.3085,-88.1395,14.53,1111122 
DISL,ioos:station:DISL:CATA:1,2013-02-05T01:00:00Z,30.3085,-88.1395,14.56,1111122 
DISL,ioos:station:DISL:CATA:1,2013-02-05T01:30:00Z,30.3085,-88.1395,14.7,1111122 
DISL,ioos:station:DISL:CATA:1,2013-02-05T02:00:00Z,30.3085,-88.1395,14.94,1111122 
DISL,ioos:station:DISL:CATA:1,2013-02-05T02:30:00Z,30.3085,-88.1395,14.9,1111122 
DISL,ioos:station:DISL:CATA:1,2013-02-05T03:00:00Z,30.3085,-88.1395,14.87,1111122 
DISL,ioos:station:DISL:CATA:1,2013-02-05T03:30:00Z,30.3085,-88.1395,15.04,1111122 
DISL,ioos:station:DISL:CATA:1,2013-02-05T04:00:00Z,30.3085,-88.1395,15.21,1111122 
DISL,ioos:station:DISL:CATA:1,2013-02-05T04:30:00Z,30.3085,-88.1395,15.14,1111122 
DISL,ioos:station:DISL:CATA:1,2013-02-05T05:00:00Z,30.3085,-88.1395,15.28,1111122 
DISL,ioos:station:DISL:CATA:1,2013-02-05T05:30:00Z,30.3085,-88.1395,15.97,1111122 
DISL,ioos:station:DISL:CATA:1,2013-02-05T06:00:00Z,30.3085,-88.1395,15.38,1111122 
DISL,ioos:station:DISL:CATA:1,2013-02-05T06:30:00Z,30.3085,-88.1395,14.73,1111122 
DISL,ioos:station:DISL:CATA:1,2013-02-05T07:00:00Z,30.3085,-88.1395,14.42,1111122 
DISL,ioos:station:DISL:CATA:1,2013-02-05T07:30:00Z,30.3085,-88.1395,14.15,1111122 
DISL,ioos:station:DISL:CATA:1,2013-02-05T08:00:00Z,30.3085,-88.1395,13.94,1111122 
DISL,ioos:station:DISL:CATA:1,2013-02-05T08:30:00Z,30.3085,-88.1395,13.77,1111122 
DISL,ioos:station:DISL:CATA:1,2013-02-05T09:00:00Z,30.3085,-88.1395,13.67,1111122 
DISL,ioos:station:DISL:CATA:1,2013-02-05T09:30:00Z,30.3085,-88.1395,13.5,1111122 
DISL,ioos:station:DISL:CATA:1,2013-02-05T10:00:00Z,30.3085,-88.1395,13.46,1111122 
DISL,ioos:station:DISL:CATA:1,2013-02-05T10:30:00Z,30.3085,-88.1395,13.43,1111122 
DISL,ioos:station:DISL:CATA:1,2013-02-05T11:00:00Z,30.3085,-88.1395,13.33,1111122 
DISL,ioos:station:DISL:CATA:1,2013-02-05T11:30:00Z,30.3085,-88.1395,13.64,1111122 
DISL,ioos:station:DISL:CATA:1,2013-02-05T12:00:00Z,30.3085,-88.1395,13.67,1111122 
DISL,ioos:station:DISL:CATA:1,2013-02-05T12:30:00Z,30.3085,-88.1395,13.77,1111122 
DISL,ioos:station:DISL:CATA:1,2013-02-05T13:00:00Z,30.3085,-88.1395,13.64,1111122 
DISL,ioos:station:DISL:CATA:1,2013-02-05T13:30:00Z,30.3085,-88.1395,13.84,1111122 
DISL,ioos:station:DISL:CATA:1,2013-02-05T14:00:00Z,30.3085,-88.1395,14.29,1111122 
DISL,ioos:station:DISL:CATA:1,2013-02-05T14:30:00Z,30.3085,-88.1395,14.18,1111122 
DISL,ioos:station:DISL:CATA:1,2013-02-05T15:00:00Z,30.3085,-88.1395,14.15,1111122 
DISL,ioos:station:DISL:CATA:1,2013-02-05T15:30:00Z,30.3085,-88.1395,14.56,1111122 
DISL,ioos:station:DISL:CATA:1,2013-02-05T16:00:00Z,30.3085,-88.1395,14.46,1111122 
DISL,ioos:station:DISL:CATA:1,2013-02-05T16:30:00Z,30.3085,-88.1395,14.87,1111122 
DISL,ioos:station:DISL:CATA:1,2013-02-05T17:00:00Z,30.3085,-88.1395,15.85,1111122 
DISL,ioos:station:DISL:CATA:1,2013-02-05T17:30:00Z,30.3085,-88.1395,15.81,1111122 
DISL,ioos:station:DISL:CATA:1,2013-02-05T18:00:00Z,30.3085,-88.1395,16.22,1111122 
DISL,ioos:station:DISL:CATA:1,2013-02-05T18:30:00Z,30.3085,-88.1395,15.98,1111122 
DISL,ioos:station:DISL:CATA:1,2013-02-05T19:00:00Z,30.3085,-88.1395,15.88,1111122 
DISL,ioos:station:DISL:CATA:1,2013-02-05T19:30:00Z,30.3085,-88.1395,15.84,1111122 
DISL,ioos:station:DISL:CATA:1,2013-02-05T20:00:00Z,30.3085,-88.1395,16.25,1111122 
DISL,ioos:station:DISL:CATA:1,2013-02-05T20:30:00Z,30.3085,-88.1395,16.22,1111122 
DISL,ioos:station:DISL:CATA:1,2013-02-05T21:00:00Z,30.3085,-88.1395,15.54,1111122 
DISL,ioos:station:DISL:CATA:1,2013-02-05T21:30:00Z,30.3085,-88.1395,15.95,1111122 
DISL,ioos:station:DISL:CATA:1,2013-02-05T22:00:00Z,30.3085,-88.1395,15.85,1111122 
DISL,ioos:station:DISL:CATA:1,2013-02-05T22:30:00Z,30.3085,-88.1395,16.29,1111122 
DISL,ioos:station:DISL:CATA:1,2013-02-05T23:00:00Z,30.3085,-88.1395,16.43,1111122 
DISL,ioos:station:DISL:CATA:1,2013-02-05T23:30:00Z,30.3085,-88.1395,16.77,1111122 
DISL,ioos:station:DISL:CATA:1,2013-02-06T00:00:00Z,30.3085,-88.1395,16.6,1111122 
DISL,ioos:station:DISL:CATA:1,2013-02-06T00:30:00Z,30.3085,-88.1395,16.33,1111122 
DISL,ioos:station:DISL:CATA:1,2013-02-06T01:00:00Z,30.3085,-88.1395,16.13,1111122 
DISL,ioos:station:DISL:CATA:1,2013-02-06T01:30:00Z,30.3085,-88.1395,16.03,1111122 
DISL,ioos:station:DISL:CATA:1,2013-02-06T02:00:00Z,30.3085,-88.1395,16.0,1111122 
DISL,ioos:station:DISL:CATA:1,2013-02-06T02:30:00Z,30.3085,-88.1395,15.97,1111122 
DISL,ioos:station:DISL:CATA:1,2013-02-06T03:00:00Z,30.3085,-88.1395,15.62,1111122 
DISL,ioos:station:DISL:CATA:1,2013-02-06T03:30:00Z,30.3085,-88.1395,15.49,1111122 
DISL,ioos:station:DISL:CATA:1,2013-02-06T04:00:00Z,30.3085,-88.1395,15.45,1111122 
DISL,ioos:station:DISL:CATA:1,2013-02-06T04:30:00Z,30.3085,-88.1395,14.87,1111122 
DISL,ioos:station:DISL:CATA:1,2013-02-06T05:00:00Z,30.3085,-88.1395,14.49,1111122 
DISL,ioos:station:DISL:CATA:1,2013-02-06T05:30:00Z,30.3085,-88.1395,14.49,1111122 
DISL,ioos:station:DISL:CATA:1,2013-02-06T06:00:00Z,30.3085,-88.1395,14.66,1111122 
DISL,ioos:station:DISL:CATA:1,2013-02-06T06:30:00Z,30.3085,-88.1395,14.56,1111122 
DISL,ioos:station:DISL:CATA:1,2013-02-06T07:00:00Z,30.3085,-88.1395,14.36,1111122 
DISL,ioos:station:DISL:CATA:1,2013-02-06T07:30:00Z,30.3085,-88.1395,14.25,1111122 
DISL,ioos:station:DISL:CATA:1,2013-02-06T08:00:00Z,30.3085,-88.1395,14.01,1111122 
DISL,ioos:station:DISL:CATA:1,2013-02-06T08:30:00Z,30.3085,-88.1395,13.94,1111122 
DISL,ioos:station:DISL:CATA:1,2013-02-06T09:00:00Z,30.3085,-88.1395,13.64,1111122 
DISL,ioos:station:DISL:CATA:1,2013-02-06T09:30:00Z,30.3085,-88.1395,13.67,1111122 
DISL,ioos:station:DISL:CATA:1,2013-02-06T10:00:00Z,30.3085,-88.1395,13.6,1111122 
DISL,ioos:station:DISL:CATA:1,2013-02-06T10:30:00Z,30.3085,-88.1395,13.4,1111122 
DISL,ioos:station:DISL:CATA:1,2013-02-06T11:00:00Z,30.3085,-88.1395,12.91,1111122 
DISL,ioos:station:DISL:CATA:1,2013-02-06T11:30:00Z,30.3085,-88.1395,12.61,1111122 
DISL,ioos:station:DISL:CATA:1,2013-02-06T12:00:00Z,30.3085,-88.1395,12.47,1111122 
DISL,ioos:station:DISL:CATA:1,2013-02-06T12:30:00Z,30.3085,-88.1395,12.44,1111122 
DISL,ioos:station:DISL:CATA:1,2013-02-06T13:00:00Z,30.3085,-88.1395,12.3,1111122 
DISL,ioos:station:DISL:CATA:1,2013-02-06T13:30:00Z,30.3085,-88.1395,12.13,1111122 
DISL,ioos:station:DISL:CATA:1,2013-02-06T14:00:00Z,30.3085,-88.1395,11.86,1111122 
DISL,ioos:station:DISL:CATA:1,2013-02-06T14:30:00Z,30.3085,-88.1395,11.69,1111122 
DISL,ioos:station:DISL:CATA:1,2013-02-06T15:00:00Z,30.3085,-88.1395,12.44,1111122 
DISL,ioos:station:DISL:CATA:1,2013-02-06T15:30:00Z,30.3085,-88.1395,12.68,1111122 
DISL,ioos:station:DISL:CATA:1,2013-02-06T16:00:00Z,30.3085,-88.1395,12.88,1111122 
DISL,ioos:station:DISL:CATA:1,2013-02-06T16:30:00Z,30.3085,-88.1395,13.02,1111122 
DISL,ioos:station:DISL:CATA:1,2013-02-06T17:00:00Z,30.3085,-88.1395,13.09,1111122 
DISL,ioos:station:DISL:CATA:1,2013-02-06T17:30:00Z,30.3085,-88.1395,13.43,1111122 
DISL,ioos:station:DISL:CATA:1,2013-02-06T18:00:00Z,30.3085,-88.1395,13.53,1111122 
DISL,ioos:station:DISL:CATA:1,2013-02-06T18:30:00Z,30.3085,-88.1395,14.48,1111122 
DISL,ioos:station:DISL:CATA:1,2013-02-06T19:00:00Z,30.3085,-88.1395,14.78,1111122 
DISL,ioos:station:DISL:CATA:1,2013-02-06T19:30:00Z,30.3085,-88.1395,14.78,1111122 
DISL,ioos:station:DISL:CATA:1,2013-02-06T20:00:00Z,30.3085,-88.1395,15.13,1111122 
DISL,ioos:station:DISL:CATA:1,2013-02-06T20:30:00Z,30.3085,-88.1395,15.85,1111122 
DISL,ioos:station:DISL:CATA:1,2013-02-06T21:00:00Z,30.3085,-88.1395,17.15,1111122 
DISL,ioos:station:DISL:CATA:1,2013-02-06T21:30:00Z,30.3085,-88.1395,16.49,1111122 
DISL,ioos:station:DISL:CATA:1,2013-02-06T22:00:00Z,30.3085,-88.1395,16.74,1111122 
DISL,ioos:station:DISL:CATA:1,2013-02-06T22:30:00Z,30.3085,-88.1395,16.77,1111122 
DISL,ioos:station:DISL:CATA:1,2013-02-06T23:00:00Z,30.3085,-88.1395,16.77,1111122 
DISL,ioos:station:DISL:CATA:1,2013-02-06T23:30:00Z,30.3085,-88.1395,15.91,1111122 
DISL,ioos:station:DISL:CATA:1,2013-02-07T00:00:00Z,30.3085,-88.1395,15.88,1111122 